Location: Silverado Vineyard
(38.4146°N, 122.3386°W)
Time: 16:58:38
(UTC+00:00)

Daily predictions for brighter satellites

Satellite Brightness Start Highest point End
(mag) Time Altitude Azimuth Time Altitude Azimuth Time Altitude Azimuth
COSMOS 2406 3.5 12:00:42 13° SW 12:05:32 52° WNW 12:11:05 10° NNE
H-2A R/B 2.7 12:03:54 10° N 12:08:21 69° WNW 12:12:50 10° SSW
Cosmos 372 Rocket 4.3 12:06:43 10° S 12:11:45 67° ESE 12:16:49 10° NNE
Cosmos 1707 2.9 12:09:03 10° NNW 12:12:47 48° W 12:16:29 10° SSW
Cosmos 2366 rocket 4.3 12:15:40 10° NNW 12:21:30 47° W 12:27:19 10° SSW
Milstar 3 3.7 12:16:05 10° WSW 12:22:22 40° S 12:31:14 10° ESE
BREEZE-M DEB (TANK) 2.1 12:21:44 10° SSW 12:23:49 42° SE 12:26:26 10° ENE
Cosmos 2084 3.3 12:19:57 10° NW 12:24:07 78° WSW 12:28:10 10° SSE
BREEZE-M DEB (TANK) 4.1 12:26:20 10° WSW 12:27:58 14° SW 12:29:44 10° S
Meteor 1-28 Rocket 4.3 12:25:59 10° SSW 12:29:10 25° W 12:32:21 10° NW
Okean 1-7 Rocket 4.0 12:26:05 10° NNW 12:30:25 44° W 12:34:41 10° SSW
Cosmos 1674 3.8 12:28:44 10° N 12:32:29 49° E 12:36:12 10° SSE
In-Cosmos 22 4.2 12:30:13 10° NNW 12:35:51 67° W 12:41:19 10° S
